Regional Weather Roundup
Issued by NWS

Home | Current Version | Previous Version | Text Only | Print | Product List | Glossary Off
Versions: 1 2 3 4 5 6 7 8 9 10 11 12 13 14 15 16 17 18 19 20 21 22 23 24 25 26 27 28 29 30 31 32 33 34 35 36 37 38 39 40 41 42 43 44 45 46 47 48 49 50

000
ASUS45 KTFX 221510
RWRMT
MONTANA REGIONAL WEATHER ROUNDUP
NATIONAL WEATHER SERVICE GREAT FALLS MT
900 AM MDT FRI MAY 22 2015

NOTE: "FAIR" INDICATES FEW OR NO CLOUDS BELOW 12000 FEET WITH NO
SIGNIFICANT WEATHER AND/OR OBSTRUCTIONS TO VISIBILITY.

MTZ001>007-043-221600-
WEST OF THE DIVIDE

CITY           SKY/WX    TMP DP  RH WIND       PRES   REMARKS
KALISPELL      SUNNY     61  36  39 NE10      29.93R
MISSOULA       SUNNY     54  44  69 CALM      29.95F
BUTTE          PTSUNNY   45  39  79 CALM      30.00S
MULLAN PASS    SUNNY     54  40  59 CALM      29.99S
DEER LODGE       N/A     48  43  81 CALM      30.02F
EUREKA           N/A     57  36  44 NW5       29.95F
HAMILTON         N/A     55  45  67 S5        29.94F
LIBBY            N/A     59  39  47 CALM      29.93F
RONAN            N/A     62  45  53 CALM      29.98R
$$

MTZ008-052>055-221600-
SOUTHWEST MONTANA

CITY           SKY/WX    TMP DP  RH WIND       PRES   REMARKS
BOZEMAN        SUNNY     53  43  68 NE3       29.97F
DILLON         CLOUDY    50  44  80 CALM      29.97F
W YELLOWSTONE  CLOUDY    41  37  87 CALM      30.02F
THREE FORKS      N/A     53  33  46 CALM      29.97F
TWIN BRIDGES     N/A     51  41  69 SE5       29.96F
$$

MTZ009-010-012-014-046-048-049-054-221600-
EAST SLOPES AND CENTRAL MONTANA

CITY           SKY/WX    TMP DP  RH WIND       PRES   REMARKS
CUT BANK       MOSUNNY   52  33  48 E3        29.99S
GREAT FALLS    SUNNY     55  42  61 CALM      29.96F
MALMSTROM AFB  SUNNY     55  43  64 W3        29.96F
HELENA         SUNNY     54  44  69 CALM      29.96F
CONRAD           N/A     53  41  64 N1        30.01R
$$

MTZ011-013-016-021-045-047-050-051-221600-
NORTH CENTRAL MONTANA

CITY           SKY/WX    TMP DP  RH WIND       PRES   REMARKS
HAVRE          SUNNY     58  38  47 E14       29.99S
LEWISTOWN      SUNNY     56  42  59 E7        29.97F
N BAR RANCH    FAIR      52  41  66 E9        30.01S
CHINOOK          N/A     54  37  54 E12       30.01F
FORT BENTON      N/A     57  36  44 NE5       29.98S
$$

MTZ017>020-022>027-061-062-221600-
NORTHEAST MONTANA

CITY           SKY/WX    TMP DP  RH WIND       PRES   REMARKS
GLASGOW        SUNNY     61  34  36 SE17      30.05F
JORDAN           N/A     61  39  44 SE17G24   30.01F
SIDNEY         SUNNY     61  39  44 NE5       30.12S
WOLF POINT     SUNNY     61  39  44 E10       30.08F
MALTA            N/A     60  41  49 NE3       30.00S
PLENTYWOOD       N/A     64  37  36 SE6       30.12F
POPLAR           N/A     63  37  39 E10       30.10F
$$

MTZ028>42-056>058-221600-
SOUTHCENTRAL AND SOUTHEAST MONTANA

CITY           SKY/WX    TMP DP  RH WIND       PRES   REMARKS
BAKER          PTSUNNY   60  41  49 SE18      30.09F
BILLINGS       PTSUNNY   53  44  71 VRB3      29.96F
LIVINGSTON     MOSUNNY   47  43  86 W3        29.98F
MILES CITY     CLOUDY    58  41  53 SE10      30.02F
BIG TIMBER       N/A     50  41  71 W3        29.99F
FORSYTH          N/A     57  43  58 E15       29.98F
LAUREL           N/A     53  41  64 NW1       29.95F
ROUNDUP          N/A     54  39  56 NE6       29.90S
$$

REGIONAL REPORTS...DAKOTAS

CITY           SKY/WX    TMP DP  RH WIND       PRES   REMARKS
WILLISTON      SUNNY     63  41  44 CALM      30.13F
MINOT          SUNNY     69  37  30 SE8       30.13S
DICKINSON      SUNNY     63  33  32 SE14      30.12S
BEACH          FAIR      61  34  36 SE18      30.11F
CROSBY         FAIR      64  36  34 SW5       30.14S
WATFORD CITY   FAIR      64  32  29 E8        30.11F
BISMARCK       SUNNY     62  45  53 CALM      30.16S
GRAND FORKS    SUNNY     65  36  34 S9        30.17F
FARGO          SUNNY     65  40  39 CALM      30.19S
BUFFALO SD       N/A     61  43  51 SE18      30.02F
RAPID CITY     CLOUDY    55  46  71 SE13      30.10F
$$

REGIONAL REPORTS...WYOMING/IDAHO/WASHINGTON

CITY           SKY/WX    TMP DP  RH WIND       PRES   REMARKS
GILLETTE       CLOUDY    53  45  74 SE13      30.02S
SHERIDAN       PTSUNNY   51  44  77 CALM      29.97S
BUFFALO WY       N/A     53  46  77 SE14      29.99S
CODY           CLOUDY    52  45  76 NE6       29.98R
YELLOWSTONE LA   N/A     42  34  73 SE3       30.05F
IDAHO FALLS    CLOUDY    53  47  79 N5        29.94S
SALMON         PTSUNNY   52  45  76 CALM      29.95S
BOISE          CLOUDY    59  48  67 S5        29.89S
SPOKANE        PTSUNNY   63  50  62 VRB3      29.87S
$$

REGIONAL REPORTS...ALBERTA

CITY           SKY/WX    TMP DP  RH WIND       PRES   REMARKS
EDMONTON       MOSUNNY   64  37  36 CALM      29.98R
CALGARY        MOSUNNY   55  34  44 SE2       30.00S
LETHBRIDGE     MOSUNNY   54  37  54 CALM      29.98S
MEDICINE HAT   SUNNY     68  28  22 SE10      29.99F
$$

REGIONAL REPORTS...SASKATCHEWAN

CITY           SKY/WX    TMP DP  RH WIND       PRES   REMARKS
SWIFT CURRENT  SUNNY     64  30  27 SE15      30.08S
REGINA         SUNNY     63  41  45 VRB2      30.12F
SASKATOON      SUNNY     64  37  36 SW3       30.10S
$$


USA.gov is the U.S. government's official web portal to all federal, state and local government web resources and services.